Location: ???????????
(54.6970°N, 39.1477°E)
Time: 14:24:49
(UTC+00:00)

Cosmos-2242 - Pass Details

Date: 19 May 2025
Orbit: 569 x 594 km, 82.5° (Epoch: 19 June)

Event Time Altitude Azimuth Distance (km) Brightness Sun altitude
Exits shadow 18:14:55 - 177° (S) 2,880 6.0 -5.6°
Rises 18:15:03 0° 177° (S) 2,827 6.0 -5.6°
Reaches altitude 10° 18:17:16 10° 173° (S) 1,930 5.1 -5.8°
Maximum altitude 18:21:27 55° 96° (E) 719 3.2 -6.2°
Drops below altitude 10° 18:25:38 10° 19° (NNE) 1,939 6.1 -6.6°
Sets 18:27:52 0° 15° (NNE) 2,843 7.0 -6.8°
